Wind_Speed
12 13 13 14 14 14 14 14 15 17 18 17 16 15 12 10 11 12 13 16 17 15 14 14 15 16 18 19 19 18 18 20 21 20 21 22 23 24 24 24 23 23
12 13 13 14 15 15 16 15 15 15 16 14 14 16 16 13 12 12 13 16 16 15 15 14 15 15 16 18 18 17 17 19 21 20 20 22 22 23 25 25 26 25
13 14 14 14 15 17 18 17 16 14 13 13 14 16 18 17 15 13 15 17 17 16 16 15 15 15 15 17 19 19 18 19 20 21 21 20 20 22 25 27 27 25
15 15 15 15 15 17 18 19 18 16 13 13 14 17 18 18 17 16 16 18 18 18 18 17 16 16 17 18 20 21 20 20 20 21 21 20 19 21 23 26 27 26
16 16 16 16 16 17 17 18 19 18 16 15 15 16 17 16 16 17 17 17 18 19 19 18 17 17 17 17 20 20 20 22 23 21 20 19 20 20 21 22 23 24
16 16 16 16 16 17 17 18 19 19 18 16 15 14 15 16 16 17 17 17 18 19 20 20 18 17 17 17 18 19 20 23 24 22 20 20 19 18 19 21 22 22
16 16 16 16 17 18 18 18 19 19 18 16 15 13 13 13 14 14 15 16 18 19 21 22 19 17 18 19 19 20 20 21 22 22 22 21 20 19 21 24 24 23
17 17 16 17 17 17 18 18 18 19 19 17 16 14 12 12 12 12 13 16 20 20 20 22 22 20 18 19 21 21 21 21 21 23 24 23 21 22 24 26 24 25
17 18 17 18 18 17 17 18 19 19 20 20 18 16 14 13 13 13 14 17 20 20 19 20 24 24 20 19 21 21 22 22 22 24 24 24 23 23 24 24 22 25
18 18 18 18 18 18 18 19 19 19 19 20 20 18 15 15 15 15 16 18 20 21 20 22 26 26 21 19 20 20 22 22 22 24 24 24 23 22 24 23 23 25
19 18 18 18 18 18 19 19 19 19 18 19 20 20 17 16 16 16 18 20 21 22 24 27 29 26 20 18 19 20 21 22 22 23 23 23 22 23 25 24 23 22
20 19 18 19 18 18 19 19 19 19 19 19 20 20 19 18 17 17 18 19 20 22 27 29 28 24 20 19 19 21 22 22 22 23 21 22 23 23 24 24 24 23
20 19 19 19 19 18 19 19 19 19 19 20 21 21 20 20 19 18 18 19 20 22 25 27 25 21 19 20 21 22 21 20 22 25 23 22 23 22 24 26 26 26
19 19 19 19 19 19 19 19 19 20 20 20 21 22 21 20 20 20 20 20 21 22 23 25 24 18 17 21 22 22 22 20 22 24 22 22 23 24 27 30 28 27
19 19 19 19 19 20 20 19 19 20 21 20 20 21 21 21 21 21 21 21 21 23 22 23 24 19 17 21 22 21 20 19 22 24 22 23 24 23 25 28 27 26
19 19 19 19 19 20 20 20 21 21 21 21 21 21 21 22 22 21 21 21 22 22 21 22 23 22 21 22 23 23 21 18 19 21 22 26 27 24 23 25 26 24
19 20 20 19 20 20 20 21 21 22 22 21 21 21 22 22 22 22 21 21 21 22 22 22 21 18 19 22 25 26 23 20 18 18 20 25 27 26 26 26 25 23
20 20 20 20 20 20 20 20 21 22 22 21 21 21 21 21 21 21 21 21 21 21 22 22 20 17 17 20 23 25 24 22 23 21 20 23 26 28 27 26 24 20
20 20 20 20 20 20 20 20 20 21 22 21 21 22 21 20 20 21 21 21 21 22 21 20 20 21 21 19 20 22 23 23 25 25 22 24 27 28 27 26 23 19
21 20 20 20 20 20 20 20 20 21 21 21 21 22 22 21 21 21 21 21 21 22 21 20 19 22 23 22 22 22 22 22 25 27 25 25 26 26 26 26 24 22
21 20 20 20 20 20 20 20 20 20 20 20 20 20 21 21 21 21 21 22 22 22 22 20 20 23 25 24 24 23 21 21 24 27 26 25 25 24 23 23 23 23
20 20 20 20 20 20 20 20 20 20 20 20 19 19 20 20 21 21 21 22 23 22 23 22 21 23 25 24 24 24 22 20 21 25 24 22 23 23 20 18 19 20
20 20 20 20 20 21 21 21 21 20 20 20 19 19 20 21 21 21 20 21 22 22 24 24 23 23 23 21 22 22 20 20 21 22 20 18 20 21 18 16 17 19
19 19 20 20 21 21 22 22 21 21 20 20 19 19 19 20 20 20 19 20 21 22 25 26 25 25 23 17 16 15 13 14 16 15 9 8 11 12 12 13 15 17
19 20 20 20 20 21 21 21 21 21 21 20 19 19 19 18 19 20 20 20 20 21 26 29 28 27 26 19 11 7 3 3 8 9 9 12 14 12 10 10 11 13
19 19 19 19 20 20 20 19 19 20 21 20 19 19 19 19 19 19 19 20 20 21 24 28 30 29 28 23 15 9 7 8 12 16 16 16 16 14 11 10 10 12
Wind_Direction
330 324 318 313 309 303 294 288 284 282 278 272 271 273 272 266 261 257 248 240 234 228 222 217 221 225 227 227 224 223 222 215 212 212 212 213 213 217 220 220 222 225
331 327 322 315 311 308 305 300 292 284 280 278 276 274 278 281 273 266 263 254 242 235 229 222 222 226 229 230 227 223 220 218 217 212 209 210 207 209 214 217 220 223
334 329 324 320 317 315 312 308 301 293 287 286 282 275 276 280 277 269 265 262 253 243 236 229 225 226 229 231 229 225 221 220 219 213 212 211 204 205 212 217 220 223
337 333 327 322 317 315 314 311 305 301 297 292 285 278 276 276 275 269 263 262 259 251 242 233 226 225 229 231 231 227 221 221 220 217 218 216 208 206 210 215 216 220
338 335 331 325 318 313 311 308 305 303 303 297 285 280 278 275 270 266 263 262 261 259 250 238 227 222 224 230 233 230 223 221 221 220 221 219 215 210 210 213 213 214
339 337 332 327 322 317 313 308 304 304 305 299 287 281 279 275 270 267 266 265 264 265 259 248 234 222 220 224 230 231 228 225 223 221 220 220 219 213 207 208 209 211
340 338 334 331 328 323 317 311 306 307 306 299 291 286 279 273 270 265 259 256 256 259 259 256 247 231 222 222 226 229 230 230 228 223 221 221 219 213 210 209 209 211
341 340 337 334 332 327 322 318 314 310 307 302 295 290 285 276 269 262 256 253 252 249 248 253 255 245 229 224 226 227 228 229 229 227 225 223 219 215 215 215 212 212
343 342 340 337 335 332 328 324 321 315 309 306 300 293 289 282 272 264 261 259 256 252 248 250 253 249 237 229 228 228 227 228 228 227 225 221 218 216 216 214 212 213
346 343 342 340 337 334 331 327 324 319 313 308 305 300 292 284 277 269 267 266 262 261 259 255 253 250 241 233 231 230 231 232 229 226 225 222 218 214 214 213 212 214
349 346 344 342 339 336 333 331 327 323 318 311 308 306 299 290 281 272 271 272 268 264 259 253 250 248 243 237 236 235 233 233 233 231 229 227 221 216 216 216 212 211
350 349 347 344 342 338 335 333 331 329 327 322 318 312 304 297 290 280 274 271 267 262 259 255 250 246 245 242 239 237 234 231 232 231 229 228 226 222 219 218 216 215
351 350 349 347 345 342 338 336 335 333 333 331 330 326 317 309 302 293 285 277 270 264 262 262 260 253 247 244 239 238 236 233 230 231 231 230 229 224 219 218 218 218
353 352 351 351 350 348 345 341 338 338 337 335 335 334 331 326 319 311 303 294 285 277 272 273 274 268 253 247 247 244 242 240 235 233 234 231 227 225 223 221 219 218
355 354 353 355 355 354 353 350 346 343 341 340 339 338 336 333 330 324 317 310 302 292 284 280 281 279 263 255 255 252 247 247 243 237 235 234 231 229 226 224 221 221
356 355 355 357 357 357 357 355 353 350 346 344 343 341 340 337 335 333 329 325 320 311 302 294 288 281 269 263 261 256 250 253 256 246 236 236 235 230 226 224 222 222
357 357 357 358 358 358 358 357 355 354 351 349 347 345 343 341 339 338 337 333 328 324 320 316 308 291 275 271 269 264 257 253 255 245 229 230 230 226 227 224 219 218
358 358 360 1 0 360 359 358 357 356 354 352 351 349 345 344 343 342 340 338 334 330 327 324 321 311 294 281 273 271 266 256 251 242 225 222 223 223 226 221 214 212
359 360 1 2 2 1 0 360 359 358 357 354 352 350 348 347 346 345 344 343 340 337 333 326 319 311 303 294 283 277 271 261 256 248 232 223 222 220 219 214 209 204
2 2 2 3 3 2 2 2 1 359 358 357 354 352 351 350 349 349 349 348 346 341 336 333 324 313 305 297 289 285 279 268 257 247 235 225 219 214 211 211 206 198
4 3 3 3 4 4 4 3 2 360 358 358 357 356 355 353 351 352 353 352 353 349 342 337 330 322 314 301 289 285 283 274 255 240 232 225 218 213 212 212 204 195
7 6 6 6 6 6 6 4 2 0 358 357 358 358 358 356 355 356 357 356 357 356 351 345 338 334 328 314 299 288 280 272 252 235 229 222 212 208 208 208 200 194
9 8 8 8 8 8 8 7 5 2 360 358 359 360 359 358 358 358 359 359 360 0 357 349 346 348 343 328 315 303 286 271 254 242 236 221 207 205 204 197 192 191
9 9 8 7 8 8 7 7 7 5 3 1 1 2 0 359 360 360 1 2 2 4 3 357 353 357 360 349 328 314 295 265 245 235 223 179 171 183 183 172 173 180
8 8 7 6 6 6 5 5 6 5 5 4 4 5 3 1 2 2 3 4 4 6 9 8 5 5 10 12 355 334 331 197 183 156 116 98 97 102 119 129 138 153
10 8 6 6 6 6 6 7 6 5 6 6 7 7 5 5 6 5 4 4 5 9 13 15 15 15 18 23 22 23 53 101 118 110 99 93 91 90 95 100 102 115
Height
801 800 798 796 795 793 792 792 792 792 792 792 790 789 788 787 788 789 790 790 789 788 788 788 788 788 788 788 789 789 790 792 792 793 794 795 796 798 800 802 804 806
802 800 799 797 795 793 792 792 792 791 791 791 789 788 787 786 787 788 790 790 788 787 786 786 786 786 786 786 786 786 787 788 790 791 792 793 794 795 797 799 801 803
802 800 798 797 795 794 792 791 790 790 789 789 787 786 786 786 786 787 789 789 787 786 785 784 784 784 783 783 783 783 784 785 787 788 789 790 792 793 794 796 799 800
801 800 798 797 796 794 793 791 790 789 788 788 786 785 784 784 785 785 786 788 787 785 783 783 782 781 781 780 780 781 782 783 784 785 787 787 789 790 791 794 795 797
801 800 798 797 796 795 794 792 790 788 788 788 786 784 783 782 783 783 783 785 786 784 783 782 780 779 779 778 778 779 780 780 781 782 783 784 785 787 788 790 791 792
802 800 799 798 796 795 794 792 790 788 788 787 785 784 783 781 781 781 781 782 783 783 783 781 779 777 777 777 777 777 777 778 778 779 780 781 783 784 786 787 788 790
802 800 799 798 796 795 793 792 790 788 787 786 784 783 782 781 780 779 780 781 780 780 781 781 780 777 775 775 775 775 775 775 776 776 777 779 780 781 782 784 785 787
802 800 799 798 796 795 793 792 790 788 786 785 783 782 781 780 779 778 779 778 777 777 778 778 779 777 774 773 773 773 773 773 773 774 775 776 777 778 779 780 782 784
803 801 799 798 796 795 793 792 790 788 786 784 782 781 780 779 778 778 777 777 776 775 774 775 776 776 773 770 770 770 770 771 771 772 773 773 774 775 776 777 779 780
804 802 800 799 797 795 793 792 790 788 786 784 782 780 779 778 777 776 775 775 774 773 772 773 774 773 771 769 768 768 768 769 769 770 770 771 771 772 774 775 775 776
805 803 801 800 797 795 793 792 790 788 786 784 781 779 778 777 776 775 773 772 771 769 769 771 770 769 768 767 766 766 766 766 767 768 768 769 770 771 771 773 773 773
806 804 803 800 798 796 793 791 790 788 786 784 782 779 777 775 774 773 772 770 769 768 767 767 766 765 765 764 763 763 763 763 764 765 766 768 769 769 770 771 771 771
807 805 804 801 799 796 794 791 789 787 786 784 782 779 777 775 773 772 770 769 768 767 765 764 763 763 763 761 760 760 761 762 762 763 764 766 767 768 768 768 769 769
808 806 804 801 799 796 794 792 789 787 785 783 781 779 777 775 773 771 769 767 766 764 763 761 761 762 761 759 758 759 760 761 760 761 763 765 766 766 766 766 767 767
809 807 804 802 800 797 795 792 790 788 786 783 781 779 777 774 772 770 769 766 764 762 760 759 759 760 760 758 758 758 759 760 759 761 763 764 764 764 765 765 765 766
810 808 805 803 801 798 796 794 791 789 787 784 782 780 777 774 772 770 768 766 764 761 759 758 758 759 759 758 757 757 758 759 759 760 762 762 761 762 763 764 764 764
811 809 807 804 802 800 798 795 793 791 788 786 784 781 778 775 773 771 768 767 765 762 760 759 758 757 757 756 755 754 755 756 758 759 759 759 759 759 761 761 761 761
813 810 808 806 804 802 800 798 795 793 790 788 786 783 781 778 775 772 770 768 766 763 761 760 758 756 755 753 752 752 752 753 755 756 756 756 756 756 758 758 758 759
814 812 810 808 806 804 802 800 797 795 792 790 787 785 783 780 777 774 772 769 767 765 762 760 758 755 753 752 751 750 749 750 751 752 753 753 753 754 755 755 755 757
817 814 812 810 808 806 804 802 800 797 794 792 789 787 784 781 779 776 773 771 768 766 763 761 758 754 751 750 749 747 747 748 749 750 750 750 751 752 752 753 754 755
819 817 815 812 810 808 806 804 802 799 796 794 791 789 787 784 781 778 775 772 770 767 764 761 758 754 751 748 747 746 746 746 746 747 748 748 749 750 751 753 754 753
821 819 817 815 813 811 808 806 804 801 798 796 793 791 789 786 783 780 777 774 771 768 765 763 760 756 751 747 744 744 744 744 745 746 746 747 747 748 751 753 753 754
823 821 819 817 815 812 810 808 806 804 801 798 795 793 791 789 786 783 780 777 774 771 768 765 761 757 753 748 744 742 742 743 744 745 746 745 746 748 749 750 751 753
825 823 821 819 816 814 812 810 808 806 803 801 798 795 793 791 789 786 784 780 777 774 771 768 764 760 755 750 746 743 741 741 743 744 745 744 745 748 749 748 750 752
827 825 823 821 819 816 814 812 810 808 806 803 801 798 796 794 792 789 787 784 781 778 774 770 767 763 758 754 749 746 744 742 742 743 744 744 746 749 750 749 750 752
829 828 825 823 821 818 816 814 812 810 808 805 803 801 799 796 794 792 790 787 784 782 778 774 770 766 762 758 753 749 747 746 744 743 744 745 747 751 752 752 752 753